Regional Weather Roundup
Issued by NWS Upton, NY

Current Version | Previous Version | Graphics & Text | Print | Product List | Glossary Off
Versions: 1 2 3 4 5 6 7 8 9 10 11 12 13 14 15 16 17 18 19 20 21 22 23 24 25 26 27
000 ASUS41 KOKX 300704 RWROKX REGIONAL WEATHER ROUNDUP NATIONAL WEATHER SERVICE NEW YORK NY 300 AM EDT SAT APR 30 2016 NOTE: "FAIR" INDICATES FEW OR NO CLOUDS BELOW 12,000 FEET WITH NO SIGNIFICANT WEATHER AND/OR OBSTRUCTIONS TO VISIBILITY. NYZ071-072-176-178-NJZ106-104-300800- NEW YORK CITY METRO AREA CITY SKY/WX TMP DP RH WIND PRES REMARKS CENTRAL PARK CLOUDY 48 38 68 NE7 30.17F LAGUARDIA APRT CLOUDY 48 38 68 NE10 30.15F KENNEDY INTL CLOUDY 47 36 65 NE7 30.16F NEWARK/LIBERTY CLOUDY 47 43 86 N7 30.14F BRNX BOT. GARD N/A 45 39 81 CALM 30.16F TETERBORO CLOUDY 47 41 80 VRB6 30.14F $$ NYZ177-179-078>081-300800- LONG ISLAND NEW YORK CITY SKY/WX TMP DP RH WIND PRES REMARKS FARMINGDALE CLOUDY 46 38 73 NE7 30.16F ISLIP CLOUDY 45 38 76 NE8 30.14F SHIRLEY CLOUDY 44 39 82 VRB5 30.17F RIVERHEAD N/A 43 41 93 NE2 30.18S WESTHAMPTON CLOUDY 43 40 89 N5 30.19S EAST HAMPTON DRIZZLE 41 39 94 N5 30.18R MONTAUK POINT N/A 43 39 86 CALM 30.20R $$ NYZ052-065-067-300800- HUDSON VALLEY CITY SKY/WX TMP DP RH WIND PRES REMARKS WHITE PLAINS MOCLDY 44 40 85 N3 30.14F NEWBURGH MOCLDY 43 43 100 CALM 30.18S FOG MONTGOMERY CLOUDY 44 41 89 CALM 30.15F POUGHKEEPSIE CLOUDY 46 42 86 E3 30.16F ALBANY CLOUDY 47 38 71 SE3 30.15S $$ NJZ001-105-106-008-010-013-015-019>022-104-300800- NEW JERSEY CITY SKY/WX TMP DP RH WIND PRES REMARKS NEWARK/LIBERTY CLOUDY 47 43 86 N7 30.14F TETERBORO CLOUDY 47 41 80 VRB6 30.14F CALDWELL CLOUDY 46 42 86 NE3 30.16F MORRISTOWN CLOUDY 46 43 87 NE3 30.15F SOMERVILLE CLOUDY 46 41 82 N3 30.13F SUSSEX CLOUDY 44 40 85 CALM 30.16F ANDOVER N/A 43 40 89 N3 30.15F TRENTON CLOUDY 46 39 76 N5 30.14S MILLVILLE CLOUDY 46 44 93 NE8 30.12F ATLANTIC CITY CLOUDY 47 45 93 N8 30.12F WRIGHTSTOWN NOT AVBL TOMS RIVER CLOUDY 46 39 76 NE6 30.14F BELMAR CLOUDY 47 41 80 NE8 30.14F $$ PAZ047>061-062-071-300800- EASTERN PENNSYLVANIA CITY SKY/WX TMP DP RH WIND PRES REMARKS PHILADELPHIA CLOUDY 47 41 80 NE9 30.15F ALLENTOWN CLOUDY 45 38 76 NE3 30.16R SCRANTON CLOUDY 42 37 82 CALM 30.14S $$ CTZ002-004>006-009-010-012-RIZ004-006-007-MAZ004-011-015-300800- SOUTHERN NEW ENGLAND IN CT CITY SKY/WX TMP DP RH WIND PRES REMARKS BRADLEY INTL CLOUDY 46 37 71 SW8 30.16S HARTFORD CLOUDY 46 38 73 VRB5 30.18S DANBURY CLOUDY 44 40 85 N5 30.17F WTRBRY/OXFORD N/A 41 36 81 N5 30.17F BRIDGEPORT CLOUDY 46 40 79 NE7 30.16F MERIDEN CLOUDY 44 38 79 CALM 30.18F NEW HAVEN CLOUDY 44 41 89 NE6 30.18F CHESTER CLOUDY 43 39 87 CALM 30.18S GROTON CLOUDY 44 41 89 W5 30.18R WILLIMANTIC CLOUDY 46 34 62 S3 30.17R IN RI CITY SKY/WX TMP DP RH WIND PRES REMARKS PROVIDENCE MOCLDY 44 33 65 N3 30.17F BLOCK ISLAND CLOUDY 42 37 82 S6 30.18R WESTERLY CLOUDY 45 34 65 SW3 30.18R IN MA CITY SKY/WX TMP DP RH WIND PRES REMARKS BOSTON PTCLDY 42 32 67 S6 30.18S WORCESTER CLOUDY 42 30 62 SW6 30.14S WESTFIELD CLOUDY 46 33 60 S6 30.15S PROVINCETOWN PTCLDY 34 31 88 CALM 30.19F NANTUCKET MOCLDY 41 34 76 NE5 30.17S $$ ANZ330-335-338-340-345-350-353-355-300800- COASTAL MARINE OBSERVATIONS STATION/POSITION TIME SKY/WX TEMP WIND PRES VSBY WAVE AIR SEA DIR/SP/G HT/PER (UTC) (F) (DEG/KT/KT) (MB) (MI) (FT/S) NY HARB ENTRANCE 0550 48 51 50/ 14/ 16 1020.7 5/ 7 20S FIRE ISLAND 0550 47 48 60/ 14/ 16 1020.4 6/ 8 GREAT SOUTH BAY 0600 46 56 20/ 4/ 8 N/A 23 SSW MONTAUK P 0550 44 47 80/ 14/ 16 1020.1 5/ 7 15 E BARNEGAT LI 0622 50 N/A 7/ 8 HUDSON CANYON 0550 47 48 1018.6 7/ 8 KINGS POINT 0600 47 53 1021.3 EXECUTION ROCKS NOT AVBL CENTRAL LI SOUND 0600 44 90/ 4/ 6 N/A 1/ 6 EASTERN LI SOUND 0600 44 47 200/ 8/ 10 N/A ROBBINS REEF 0600 48 20/ 10/ 11 1020.4 $$ >>>>>>>>>>>>>>>>>>>>>>>>>>>> KEY <<<<<<<<<<<<<<<<<<<<<<<<<<< > < > SKY/WX - SKY CONDITION/PRESENT WEATHER < > TMP - TEMPERATURE IN FAHRENHEIT < > DP - DEWPOINT IN FAHRENHEIT < > RH - RELATIVE HUMIDITY IN PERCENT < > WIND - DIRECTION AND SPEED IN MPH < > PRES - MEAN SEA LEVEL PRESSURE IN INCHES OF HG < > WCI - WIND CHILL INDEX < > VSB - VISIBILITY IN MILES < > HX - HEAT INDEX < > TC - TEMPERATURE IN CELSIUS < > VRB - VARIABLE WIND DIRECTION < > < >>>>>>>>>>>>>>>>>>>>>>>>>>>> KEY <<<<<<<<<<<<<<<<<<<<<<<<<<<

USA.gov is the U.S. government's official web portal to all federal, state and local government web resources and services.